Regional Weather Roundup
Issued by NWS San Angelo, TX

Home | Current Version | Previous Version | Text Only | Print | Product List | Glossary Off
Versions: 1 2 3 4 5 6 7 8 9 10 11 12 13 14 15 16 17 18 19 20 21 22 23 24 25 26 27 28 29 30 31 32 33 34 35 36 37 38 39 40 41 42 43 44 45 46 47 48 49 50

000
ASUS44 KSJT 240610
RWRSJT
WEST CENTRAL TEXAS REGIONAL WEATHER ROUNDUP
NATIONAL WEATHER SERVICE SAN ANGELO TX
100 AM CDT WED MAY 24 2017

NOTE: "FAIR" INDICATES FEW OR NO CLOUDS BELOW 12,000 FEET WITH NO
SIGNIFICANT WEATHER AND/OR OBSTRUCTIONS TO VISIBILITY.

TXZ049-054-064>066-071>073-076>078-098-099-113-114-127-128-139-140-
154-155-168>170-240700
...LOCATIONS ACROSS WEST CENTRAL TEXAS...

CITY           SKY/WX    TMP DP  RH WIND       PRES   REMARKS
SAN ANGELO     CLEAR     49  44  83 W6        30.00S
ABILENE        CLEAR     51  49  92 S5        29.97F
DYESS AFB      CLEAR     51  49  90 SW6       29.96F
JUNCTION       CLEAR     51  49  92 CALM      29.99F
SWEETWATER     CLEAR     55  47  74 SW8       30.02S
BROWNWOOD      PTCLDY    48  48 100 CALM      29.97F
COLEMAN        CLEAR     52  47  82 W3        29.97F
SONORA         CLEAR     50  46  87 CALM      30.05F
OZONA            N/A     48  43  81 CALM      30.06S
BRADY          NOT AVBL
$$

TEXAS PANHANDLE/OKLAHOMA PANHANDLE

CITY           SKY/WX    TMP DP  RH WIND       PRES   REMARKS
AMARILLO       CLEAR     50  35  56 NW7       30.04F
BORGER         CLEAR     51  42  71 W5        30.02F
CANADIAN       CLEAR     47  44  87 CALM      29.98F
DALHART        CLEAR     50  38  63 NW8       30.07F
DUMAS          CLEAR     46  38  74 NW6       30.04F
GUYMON         NOT AVBL
HEREFORD       CLEAR     46  40  82 NW9       30.07S
PAMPA          CLEAR     51  41  68 W7        30.02F
PERRYTON       CLEAR     48  44  85 W7        29.99F
$$

SOUTHERN PANHANDLE/SOUTH PLAINS/ROLLING PLAINS

CITY           SKY/WX    TMP DP  RH WIND       PRES   REMARKS
LUBBOCK        CLOUDY    56  44  64 W6        30.04F
SNYDER         MOCLDY    54  45  72 W3        30.02S
CHILDRESS      CLEAR     54  41  61 NW3       29.98F
SEMINOLE       CLEAR     53  37  56 CALM      30.09R
$$

PERMIAN BASIN

CITY           SKY/WX    TMP DP  RH WIND       PRES   REMARKS
MIDLAND        CLEAR     57  40  52 SW7       30.05S
ODESSA         CLEAR     56  43  61 W3        30.06S
WINK           CLEAR     55  37  50 S6        30.05S
$$

FAR WEST/SOUTHWEST MOUNTAINS/TRANS PECOS

CITY           SKY/WX    TMP DP  RH WIND       PRES   REMARKS
ALPINE         CLEAR     50  44  81 S3        30.17S
DRYDEN           N/A     58  51  78 CALM      30.03F
EL PASO        CLEAR     66  37  34 E13       30.03R
FORT STOCKTON  CLEAR     55  44  66 S8        30.07S
GUADALUPE PASS CLEAR     52  38  58 NE21      30.13F
MARFA          CLEAR     51  43  74 NE8       30.14S
PECOS          CLEAR     56  39  51 S7        30.06S
$$

DALLAS/FORT WORTH METROPLEX

CITY           SKY/WX    TMP DP  RH WIND       PRES   REMARKS
DFW AIRPORT    CLEAR     62  51  67 W12       29.86F
FTW MEACHAM    CLEAR     60  52  74 W9        29.88F
DAL-EXECUTIVE  CLEAR     58  52  80 W7        29.87F
GRAND PRAIRIE  CLEAR     60  50  69 W7        29.90F
ADDISON        CLEAR     59  52  77 W3        29.90F
MESQUITE       CLEAR     57  52  82 NW3       29.88F
LANCASTER      CLEAR     56  51  84 W7        29.89F
$$

NORTH CENTRAL TEXAS

CITY           SKY/WX    TMP DP  RH WIND       PRES   REMARKS
SHRMAN/DENISON CLEAR     55  51  87 CALM      29.88F
GAINESVILLE    CLEAR     53  49  84 NW3       29.90F
BRIDGEPORT     PTCLDY    53  49  85 SW5       29.92F
DENTON         CLEAR     54  51  90 W6        29.88F
WAXAHACHIE     CLEAR     57  52  84 W6        29.90F
GRANBURY       CLEAR     55  50  85 CALM      29.92F
$$

WESTERN NORTH TEXAS

CITY           SKY/WX    TMP DP  RH WIND       PRES   REMARKS
WICHITA FALLS  PTCLDY    57  44  62 NW8       29.91F
VERNON         PTCLDY    56  45  66 W9        29.95S
BRECKENRIDGE   CLEAR     54  51  90 SW5       29.94F
COMANCHE       CLEAR     54  49  83 MISG      29.95F
$$

CENTRAL AND SOUTH CENTRAL TEXAS

CITY           SKY/WX    TMP DP  RH WIND       PRES   REMARKS
AUSTIN/BERGSTM CLEAR     61  50  67 NW7       29.95F
WACO           CLEAR     55  53  93 NW6       29.91F
HILLSBORO      CLEAR     53  52  97 CALM      29.91F
TEMPLE         CLEAR     55  52  89 W5        29.93F
KILLEEN-GRAY   CLEAR     56  50  78 W9        29.94F
FORT HOOD      CLEAR     56  50  81 W8        29.91F
GEORGETOWN     CLEAR     55  46  71 W8        29.95S
LAGO VISTA     FAIR      57  51  81 W7        29.98S
SAN MARCOS     CLEAR     57  48  72 NW7       29.96F
NEW BRAUNFELS  CLEAR     59  48  67 N5        29.95F
RANDOLPH AFB   CLEAR     60  49  66 CALM      29.96R
SAN ANTONIO    PTCLDY    62  49  62 N8        29.97S
STINSON        CLEAR     64  50  60 N8        29.95F
PLEASANTON     NOT AVBL
LA GRANGE      CLEAR     60  57  91 NW5       29.91F
GIDDINGS       CLEAR     57  54  87 NW3       29.94F
$$

EAST TEXAS

CITY           SKY/WX    TMP DP  RH WIND       PRES   REMARKS
PARIS          CLEAR     57  52  82 W10       29.85F
CLARKSVILLE    NOT AVBL
TYLER          CLEAR     58  56  93 NW6       29.86F
LONGVIEW       CLEAR     59  58  96 NW7       29.85F
PALESTINE      CLEAR     56  55  97 NW3       29.90F
NACOGDOCHES    MOCLDY    61  57  88 NW5       29.85S
$$

TEXAS HILL COUNTRY AND EDWARDS PLATEAU

CITY           SKY/WX    TMP DP  RH WIND       PRES   REMARKS
LLANO          CLEAR     55  50  82 W6        29.99F
HORSESHOE BAY  NOT AVBL
KERRVILLE      CLEAR     54  50  87 CALM      30.01R
FREDERICKSBRG  CLEAR     52  48  86 CALM      30.00F
ROCKSPRINGS    CLEAR     55  48  76 CALM      30.03F
HONDO          CLEAR     60  50  69 N8        29.97F
UVALDE         CLEAR     59  51  76 CALM      30.00S
DEL RIO        CLEAR     59  54  83 CALM      30.00F
$$

SOUTHEAST TEXAS

CITY           SKY/WX    TMP DP  RH WIND       PRES   REMARKS
COLLEGE STN    CLEAR     59  55  87 NW7       29.92F
CALDWELL       NOT AVBL
CROCKETT       CLEAR     59  57  94 CALM      29.92S
BRENHAM        CLEAR     60  56  86 NW8       29.92F
HUNTSVILLE     CLEAR     60  56  86 NW5       29.90F
CONROE         CLEAR     60  58  92 NW9       29.89F
HOUSTON BUSH   PTCLDY    64  59  83 NW12      29.89F
HOUSTON HOBBY  PTCLDY    65  60  84 NW13      29.88F
PERLAND        PTCLDY    67  60  78 N8        29.89F
WHARTON        CLEAR     62  58  88 N7        29.92F
$$

THE UPPER TEXAS COAST

CITY           SKY/WX    TMP DP  RH WIND       PRES   REMARKS
ORANGE         MOCLDY    66  65  97 NW6       29.85S
PORT ARTHUR    PTCLDY    66  63  90 NW13      29.83S
GALVESTON      CLOUDY    70  65  84 NW21G26   29.87F
ANGLETON       CLOUDY    66  63  90 N10       29.89S
BAY CITY       MOCLDY    66  60  81 N10       29.90F
$$

TEXAS COASTAL BEND, RIO GRANDE PLAINS DEEP SOUTH TEXAS

CITY           SKY/WX    TMP DP  RH WIND       PRES   REMARKS
VICTORIA       CLEAR     66  55  67 N12       29.93S
BEEVILLE       NOT AVBL
ROCKPORT       CLOUDY    68  60  75 N13       29.93R
PORT ARANSAS   MOCLDY    68  60  75 N23G29    29.92R
PORT LAVACA    PTCLDY    65  60  85 N14       29.92S
CORPUS CHRISTI MOCLDY    67  61  81 N10       29.93R
KINGSVILLE NAS MOCLDY    67  63  87 N9        29.93R
COTULLA        CLEAR     64  57  78 NW3       29.99R
LAREDO         MOCLDY    69  56  62 NE8       29.98R
BROWNSVILLE    TSTM      75  72  90 N5        29.88R
PORT ISABEL    CLOUDY    74  71  91 N17G25    29.86S
HEBBRONVILLE   CLOUDY    69  54  58 NE8       29.96F
MCALLEN        MOCLDY    73  65  75 N17G26    29.89F
WESLACO        CLOUDY    70  67  89 NE8       29.89R
FALFURRIAS     PTCLDY    68  59  74 N8        29.93S
EDINBURG       PTCLDY    71  64  79 N10       29.90F
$$




USA.gov is the U.S. government's official web portal to all federal, state and local government web resources and services.